Regional Weather Roundup
Issued by NWS

Home | Current Version | Previous Version | Graphics & Text | Print | Product List | Glossary On
Versions: 1 2 3 4 5 6 7 8 9 10 11 12 13 14 15 16 17 18 19 20 21 22 23 24 25 26 27 28
000
ASUS45 KSLC 210610
RWRUT

UTAH REGIONAL WEATHER ROUNDUP
NATIONAL WEATHER SERVICE SALT LAKE CITY UT
1200 AM MDT MON AUG 21 2017

UTZ001>011-023>025-210700-

NORTHERN UTAH

CITY           SKY/WX    TMP DP  RH WIND       PRES   REMARKS
BRIGHAM CITY   CLEAR     71  40  32 W5        30.03R
HILL AFB       CLEAR     74  36  25 SE9       30.07R
LOGAN          CLEAR     65  50  58 CALM      30.06R
OGDEN          CLEAR     73  39  29 SW12      30.03R
SALT LAKE CITY PTCLDY    77  39  25 SE6       30.02R
TOOELE VALLEY  CLEAR     70  39  32 S8        30.03S
WENDOVER       MOCLDY    83  37  19 N14       30.01R
HEBER CITY     PTCLDY    59  41  51 CALM      30.15R
WEST JORDAN    CLEAR     76  52  43 SW8       30.06S

$$

UTZ011>015-024>027-210700-

CENTRAL/NORTHEAST UTAH

CITY           SKY/WX    TMP DP  RH WIND       PRES   REMARKS
PROVO AIRPORT  MOCLDY    69  46  43 S6        30.07S
MOAB/CANYONLAN PTCLDY    78  37  22 CALM      30.04R
DELTA          MOCLDY    72  37  28 SE9       30.09R
PRICE          MOCLDY    69  38  32 NE9       30.16R
ROOSEVELT      CLOUDY    63  46  55 W9        30.13S
VERNAL         CLEAR     67  43  41 W7        30.11S

$$

UTZ013>016-019>022-027-210700-

SOUTHERN UTAH

CITY           SKY/WX    TMP DP  RH WIND       PRES   REMARKS
BRYCE CANYON   CLOUDY    55  46  71 W9        30.33F
CEDAR CITY     MOCLDY    70  44  39 SE8       30.18S
MILFORD        MOCLDY    72  45  37 SW8       30.10S
ST GEORGE      PTCLDY    80  47  31 SE6       30.00R
HANKSVILLE     MOCLDY    75  36  23 W3        30.06F
BLANDING       MOCLDY    68  44  41 E6        30.29S

$$

REGIONAL REPORTS     COLORADO/ARIZONA

CITY           SKY/WX    TMP DP  RH WIND       PRES   REMARKS
CRAIG, CO      CLEAR     54  42  64 CALM      30.21R
GRAND JUNCTION PTCLDY    78  35  21 NE6       30.06R
RIFLE, CO      CLOUDY    67  37  33 SE8       30.13R
MONTROSE, CO   CLOUDY    69  43  38 SE9       30.16F
CORTEZ, CO     CLOUDY    67  49  52 E3        30.23R
COLORADO CITY    N/A     75  46  35 E5        30.18S
PAGE, AZ       CLOUDY    81  44  27 W5        30.09R
GRAND CANYON   CLOUDY    58  49  72 CALM      30.29F
KINGMAN, AZ    MOCLDY    78  52  40 SE16      30.04F
FLAGSTAFF, AZ  CLOUDY    60  47  61 CALM      30.30R

$$

REGIONAL REPORTS    NEVADA/IDAHO/WYOMING

CITY           SKY/WX    TMP DP  RH WIND       PRES   REMARKS
LAS VEGAS, NV  CLOUDY    93  47  20 S10G18    29.89S
ELY, NY        PTCLDY    65  27  23 S12       30.17S
ELKO, NV       PTCLDY    76  30  18 NE8       30.10R
POCATELLO, ID  CLOUDY    72  36  26 SW12      30.08R
BURLEY, ID     PTCLDY    60  41  49 S7        30.06R
FORT BRIDGER,    N/A     63  32  31 W9        30.28S
EVANSTON, WY   CLOUDY    63  34  33 S7        30.26R
ROCK SPRINGS,  CLOUDY    64  35  34 NW9       30.23R
KEMMERER, WY     N/A     61  30  31 CALM      30.28S

$$




USA.gov is the U.S. government's official web portal to all federal, state and local government web resources and services.